METEOR-M2 3

Last updated on Tue Sep 22 2026 00:02:54 GMT+0000 (Coordinated Universal Time)

1 57166U 23091A 26264.63860340 -.00000025 00000+0 78455-5 0 9991 2 57166 98.5985 317.5948 0002916 241.3341 118.7545 14.24052797168247
UTC large
Height (km)
Speed (km/s)
/
Latitude / Longitude
Inclination (degrees)
Orbital Period (minutes)
Azimuth
Elevation
Range (km)
Doppler Factor

Next 0 passes for location: London (51.5072 / 0.1276)

No passes found over London.
METEOR-M2 3